Hourly Data Report for December 05, 2011

HALIFAX STANFIELD INT'L A
NOVA SCOTIA

44°52'48.060" N
63°30'00.050" W
145.40 m
8202250
71395
YHZ

Download Data

Hourly Data (December 2011)
Hourly Data Report for December 5, 2011
TIME
LST
Temp Definition
°C
Dew Point Definition
°C
Rel Hum Definition
%
Precip. Amount Definition
mm

Wind Dir Definition
10's deg

Wind Spd Definition
km/h
Visibility Definition
km
Stn Press Definition
kPa
Hmdx Definition


Wind Chill Definition


Weather Definition


00:00 3.8 2.0 88   22 22 24.1 101.30     Mostly Cloudy
01:00 3.9 2.3 89   22 20 24.1 101.24     Cloudy
02:00 4.6 3.1 90   21 15 24.1 101.24     Cloudy
03:00 5.0 3.9 93   21 15 24.1 101.23     Cloudy
04:00 5.3 4.4 94   21 11 24.1 101.21     Cloudy
05:00 5.6 4.9 95   20 15 24.1 101.15     Cloudy
06:00 6.1 5.4 95   22 13 24.1 101.14     Cloudy
07:00 5.9 5.3 96   20 19 16.1 101.09     Cloudy
08:00 6.8 6.2 96   22 26 16.1 101.09     Cloudy
09:00 7.1 6.6 97   22 19 4.8 101.11     Fog
10:00 7.9 7.0 94   21 17 16.1 101.06     Cloudy
11:00 8.4 6.9 90   23 19 24.1 101.03     Cloudy
12:00 9.0 6.2 83   26 17 24.1 100.96     Cloudy
13:00 9.6 6.3 80   23 13 24.1 100.90     Mostly Cloudy
14:00 10.1 6.9 80   21 17 24.1 100.85     Mostly Cloudy
15:00 10.4 7.4 82   19 17 24.1 100.83     Mostly Cloudy
16:00 10.0 8.0 87   18 15 24.1 100.81     Mostly Cloudy
17:00 8.6 7.8 95   18 13 24.1 100.82     Mostly Cloudy
18:00 8.2 7.7 97   18 13 24.1 100.76     Mostly Cloudy
19:00 8.4 7.8 96   19 19 24.1 100.77     Cloudy
20:00 8.2 7.8 97   18 17 24.1 100.74     Mostly Cloudy
21:00 8.5 8.2 98   20 19 24.1 100.71     Cloudy
22:00 8.9 8.6 98   20 15 16.1 100.72     Cloudy
23:00 9.5 9.0 97   24 17 24.1 100.72     Cloudy

Notes on Data Quality.

Legend

  • E = Estimated
  • M = Missing
  • NA = Not Available*
  • [empty] = Indicates an unobserved value
Date modified: